Theta_e
310 310 310 310 310 311 311 312 312 312 313 313 314 313 314 313 312 307 305 308 306 301 302 306 309 305 304 304 301 304 303 305 305 302 302 301 301 303 300 300 301 300 298 296 296 294 295 310 315 305 309 312 315 314
310 311 310 310 310 311 311 311 311 312 312 312 313 313 314 312 312 309 299 306 309 303 301 306 309 310 309 309 305 301 303 303 308 300 299 300 300 301 298 298 304 300 301 299 300 300 306 309 313 315 315 313 314 312
310 310 310 311 311 311 311 311 311 312 312 312 312 313 313 313 312 310 299 301 306 304 303 303 306 310 308 308 308 301 300 303 302 303 300 300 301 301 298 299 302 304 302 298 299 301 305 310 311 313 314 312 314 315
310 310 310 311 311 311 310 311 311 311 312 312 312 312 313 312 311 310 300 302 306 304 299 303 313 307 312 308 308 306 305 304 304 302 299 297 299 303 299 301 300 303 300 298 297 301 303 306 309 312 314 316 315 315
310 310 310 310 311 311 310 310 310 311 311 312 312 312 312 311 310 306 302 305 307 303 295 298 306 309 311 308 310 310 307 304 302 300 298 297 298 300 297 297 296 300 299 298 298 304 301 303 309 314 313 313 314 313
310 310 310 310 310 310 311 310 310 311 311 311 311 311 311 310 310 308 308 310 308 308 300 293 302 309 312 310 310 313 308 305 304 303 300 300 301 300 296 294 300 303 306 304 303 304 304 308 312 316 315 316 318 316
309 310 310 310 310 310 310 310 310 310 310 310 310 310 310 309 303 307 308 309 307 307 305 299 300 308 310 307 307 306 306 306 306 303 301 301 301 302 297 296 303 311 313 311 310 307 307 312 311 315 316 317 317 317
309 309 310 310 310 310 310 309 309 310 310 310 310 310 310 310 308 309 310 310 308 307 305 297 299 305 307 303 303 305 306 305 305 304 302 301 302 300 296 302 308 311 313 313 314 315 312 313 315 316 318 319 318 318
309 309 310 310 310 310 310 309 309 310 309 309 310 310 310 309 307 307 315 314 308 307 302 301 299 298 308 305 306 306 305 301 304 301 300 302 298 298 303 305 307 310 308 310 313 314 315 316 317 318 319 318 315 315
309 309 309 310 310 309 309 309 309 309 308 308 305 305 306 305 313 312 309 307 307 306 302 295 298 296 305 303 302 301 302 301 298 300 303 301 300 305 309 309 309 312 312 315 312 313 314 314 315 315 316 317 316 315
309 309 309 309 309 309 309 309 309 309 306 300 297 296 302 308 305 306 303 303 304 302 303 303 300 301 306 302 300 302 300 299 295 298 299 299 298 305 310 313 316 318 318 318 318 317 316 315 315 316 318 318 318 317
309 309 309 309 309 309 309 308 309 303 299 300 303 306 302 303 301 299 299 301 302 301 305 303 303 304 304 306 302 302 300 301 296 302 302 298 303 308 311 314 319 321 320 321 322 320 318 316 317 317 318 319 320 320
308 308 308 309 309 309 309 309 310 309 306 304 301 299 299 299 292 298 295 298 300 304 305 303 300 301 303 305 302 302 299 298 303 300 301 302 306 309 310 314 316 318 318 319 321 321 320 317 317 317 319 321 321 320
308 308 308 308 308 309 310 310 310 308 304 298 297 289 295 294 296 298 299 300 304 303 302 302 300 300 300 298 300 297 301 302 297 296 296 303 305 308 310 313 314 313 315 316 318 320 319 318 316 319 321 320 319 316
308 308 308 308 309 309 309 309 309 303 299 295 296 290 295 299 300 302 302 301 303 303 301 299 299 298 297 296 297 298 297 297 301 300 305 306 309 308 308 312 313 314 315 316 317 318 319 318 317 318 319 318 317 317
309 307 305 308 308 308 308 307 304 302 300 294 293 293 296 296 296 298 299 301 303 301 301 300 297 296 295 298 298 296 297 295 300 304 307 308 308 308 308 310 312 314 316 316 317 317 318 315 316 316 317 317 316 317
307 301 307 308 307 307 308 302 301 299 298 294 292 296 295 296 296 298 300 302 304 301 297 297 295 295 298 296 296 299 298 302 306 308 309 307 307 310 309 309 312 314 316 316 316 316 315 316 316 315 313 315 317 318
302 301 307 307 306 304 300 301 299 297 293 294 292 294 296 298 298 300 303 303 302 300 298 297 299 294 293 293 294 298 301 303 305 305 306 310 310 310 311 311 312 313 314 315 315 316 315 314 313 314 314 316 316 317
305 303 306 307 305 303 299 300 301 292 294 294 294 295 297 298 300 302 303 304 303 303 301 297 295 293 294 297 299 301 302 303 306 308 309 311 310 309 311 312 311 314 315 314 314 316 316 314 315 316 316 317 315 317
307 307 307 307 306 301 299 297 302 295 293 294 295 294 296 298 300 301 302 303 302 301 297 296 296 298 298 302 305 307 308 309 309 309 308 310 311 309 311 310 311 312 313 313 313 307 314 316 316 316 318 316 317 317
304 305 309 304 303 301 297 297 297 300 297 294 296 296 296 298 298 299 299 303 304 303 302 304 304 309 311 312 312 312 312 314 313 313 312 311 314 313 310 313 313 312 310 310 311 312 309 313 318 321 320 317 318 320
302 310 307 305 302 302 300 298 295 297 295 295 295 296 294 296 300 304 309 305 303 307 309 307 308 310 308 308 311 311 315 317 318 317 310 313 314 314 312 313 312 312 313 314 315 314 316 320 320 322 320 317 316 313
305 306 304 304 300 295 293 299 298 299 294 296 300 299 299 297 305 309 304 304 304 307 310 307 308 310 308 313 315 315 313 316 314 314 316 317 318 317 316 315 315 315 317 318 320 320 320 310 316 318 319 318 317 313
307 303 299 298 297 290 296 297 299 298 298 297 297 298 301 304 308 301 301 304 309 310 309 306 313 312 312 313 311 311 313 313 311 313 317 318 317 317 318 319 319 319 321 323 322 321 320 316 311 316 315 313 313 313
295 293 293 287 295 296 295 296 296 296 295 297 297 298 300 307 302 302 301 306 308 306 305 309 311 312 310 311 312 313 315 314 312 312 317 319 315 316 315 316 315 315 320 319 317 316 316 315 314 313 312 310 309 308
288 294 291 294 293 292 295 293 294 295 296 297 298 299 304 301 300 298 302 303 308 305 306 310 310 310 311 311 310 311 312 315 314 314 316 317 318 315 310 309 309 310 316 317 314 313 311 310 310 312 311 307 300 306
289 292 295 298 299 299 297 299 298 296 296 297 299 301 299 295 297 302 303 307 307 308 308 311 309 311 311 312 313 314 316 316 315 316 319 320 320 319 316 310 308 311 311 315 316 314 310 308 308 308 306 306 307 306
295 295 290 295 295 297 296 296 296 296 299 302 301 299 299 300 302 308 308 309 309 309 309 311 314 314 313 313 312 312 313 313 313 315 317 318 317 317 317 320 320 302 311 307 308 314 315 313 311 307 305 304 305 306
294 296 296 295 297 297 297 297 297 298 301 302 301 300 302 306 312 311 310 311 312 308 308 311 313 316 316 312 309 305 303 303 306 306 308 308 309 309 312 313 310 315 313 310 297 299 303 307 307 305 304 302 301 300
293 295 293 294 294 295 298 300 300 301 303 303 306 306 306 303 308 315 313 312 309 308 311 310 313 314 313 310 307 303 302 304 301 303 303 303 306 309 309 310 307 304 305 304 302 303 299 302 301 303 301 300 299 299
294 293 292 293 293 296 298 300 299 300 299 300 301 301 301 304 308 314 312 311 313 311 311 312 311 311 308 305 305 302 303 306 305 303 302 304 305 306 309 307 303 303 303 302 301 300 300 299 299 300 300 299 301 300
293 295 293 292 295 299 300 297 296 296 296 296 296 298 299 300 301 306 308 311 312 311 308 309 309 310 312 308 306 305 300 308 303 301 301 301 306 307 307 305 304 303 303 302 301 299 299 298 298 298 298 298 298 298
297 298 298 297 296 296 298 296 295 295 295 295 296 298 298 299 299 304 309 311 313 313 312 312 312 313 312 311 311 309 304 303 298 294 292 292 292 297 305 306 305 304 304 303 301 300 299 298 297 297 297 297 297 297
Wind_Speed
14 15 17 18 20 20 20 21 22 22 23 23 23 23 23 22 20 8 3 3 3 2 7 3 3 1 1 2 3 4 5 5 5 5 3 3 3 4 1 4 4 5 2 2 1 2 5 3 10 3 7 4 4 7
14 15 16 18 19 19 20 21 21 22 22 23 23 22 21 20 18 10 2 2 2 3 7 3 6 7 5 6 6 2 4 3 4 5 0 2 1 1 3 3 2 1 7 5 8 7 7 6 7 7 4 4 3 3
14 15 16 17 18 19 19 20 21 22 22 22 23 22 20 17 14 9 2 4 3 3 6 4 4 3 1 7 5 4 3 3 0 4 4 2 2 4 3 6 2 2 2 1 4 5 6 8 9 7 5 4 3 4
14 15 16 17 18 19 20 21 21 21 21 21 21 22 20 16 12 7 1 2 2 1 2 8 5 6 7 5 5 4 4 3 5 3 3 3 2 3 4 3 3 5 2 2 6 8 8 7 7 9 10 7 6 5
13 14 15 17 18 19 21 22 23 23 23 23 22 20 18 14 10 3 1 2 1 4 3 6 10 5 8 3 8 6 5 4 3 2 3 4 3 2 1 3 3 2 4 2 6 11 7 9 9 7 7 7 7 6
13 14 16 17 18 20 21 22 23 24 24 24 24 21 17 12 9 1 3 1 3 2 3 5 5 6 6 1 2 2 3 3 3 5 4 3 4 4 3 2 5 4 6 6 6 5 9 14 11 5 2 2 3 2
13 15 16 18 19 21 22 23 24 25 26 26 24 20 14 8 1 3 4 3 4 1 3 6 7 5 5 5 3 3 3 1 3 2 2 3 2 5 4 4 6 11 10 11 7 8 4 7 4 8 7 8 8 8
12 14 16 18 19 21 22 23 25 26 28 28 25 19 6 3 2 3 2 2 2 3 3 2 6 5 6 4 4 3 3 3 2 2 2 3 2 2 2 3 7 10 14 5 14 9 5 6 7 9 6 7 8 5
12 13 15 17 19 21 22 24 25 28 30 27 21 2 3 4 3 3 11 0 1 3 2 2 1 3 5 2 2 4 3 2 2 1 3 5 3 3 2 4 8 9 5 10 15 10 8 6 5 6 6 7 5 7
12 13 15 17 19 21 22 23 25 29 28 17 6 4 2 1 13 6 3 3 3 2 2 2 1 4 3 2 3 3 2 1 2 4 2 5 2 4 3 5 7 8 9 9 8 13 11 9 7 7 7 8 7 7
12 13 14 17 18 20 21 22 22 26 11 6 6 3 5 15 3 3 1 1 0 1 2 4 5 2 2 2 3 1 2 1 2 5 3 2 3 4 6 7 7 7 7 8 6 7 6 7 7 9 11 9 8 8
12 13 14 16 17 19 20 19 17 5 1 4 5 5 4 4 3 2 2 2 2 3 1 2 3 4 3 2 3 2 1 3 5 2 5 3 3 5 6 7 9 8 9 9 6 7 8 7 7 7 7 8 7 8
12 12 14 16 17 18 18 16 15 13 8 0 1 3 3 2 5 2 1 2 2 2 2 2 2 1 4 4 2 2 1 5 1 4 3 3 4 6 7 6 8 7 7 7 9 7 7 8 8 5 7 7 8 8
12 11 14 16 17 14 15 17 15 8 2 2 3 6 2 2 2 3 3 3 4 1 1 2 1 2 1 3 1 0 4 2 2 3 1 3 4 6 7 6 5 11 11 9 11 9 9 8 9 9 7 6 6 9
11 12 15 13 9 14 17 18 14 0 1 1 2 3 3 3 4 5 3 1 3 1 2 3 3 3 3 2 1 1 2 2 3 1 3 4 6 6 7 8 8 9 10 10 10 9 10 8 8 10 7 7 7 8
9 11 2 6 12 16 18 9 1 1 1 0 2 2 3 2 5 5 3 2 3 2 2 4 3 3 2 0 2 3 1 2 2 3 4 5 6 7 7 7 8 8 8 9 9 10 10 8 8 8 9 8 8 7
4 4 3 10 16 18 11 1 2 2 3 2 3 3 3 3 5 4 2 3 2 3 2 2 2 2 2 2 3 1 2 2 4 5 4 6 6 9 7 7 9 8 8 8 9 9 7 7 6 6 7 8 9 9
4 4 7 10 11 6 4 0 1 2 3 3 1 4 2 3 3 4 3 2 3 3 2 2 3 0 3 3 2 2 4 5 5 6 5 9 7 8 7 9 8 8 7 9 10 9 6 7 6 5 7 7 7 6
4 5 10 10 5 3 3 3 2 3 5 3 3 3 3 4 4 4 2 3 1 2 4 2 2 2 4 3 3 4 4 4 6 5 5 8 8 9 9 8 7 8 6 7 8 7 5 6 6 5 5 6 5 5
11 15 17 12 4 2 3 4 2 2 3 3 2 3 3 4 3 2 2 2 2 2 2 2 5 4 4 3 4 5 6 6 5 8 11 9 7 7 9 6 7 6 6 7 6 4 5 5 4 4 5 4 6 6
4 3 4 6 2 3 2 3 3 3 3 1 3 2 4 2 3 3 3 3 2 3 3 3 2 3 4 5 4 4 7 6 7 6 9 10 10 7 6 7 5 4 4 4 4 5 4 4 6 4 4 4 4 4
3 6 2 3 2 3 3 3 3 3 1 3 3 1 3 3 3 3 3 2 3 2 2 2 2 2 4 5 6 5 7 8 7 6 7 8 6 6 4 4 4 4 4 5 4 3 4 5 5 2 2 3 7 8
7 3 2 3 3 1 6 1 3 3 2 3 2 3 3 3 3 1 2 0 2 2 2 2 3 3 4 6 5 5 4 5 5 5 5 6 7 5 4 4 3 4 6 4 2 1 3 5 5 3 6 8 6 7
4 2 2 3 4 4 2 3 3 2 2 2 3 3 3 3 2 2 2 2 1 0 1 2 2 3 3 4 3 4 5 3 4 4 4 5 5 4 4 4 5 5 6 5 5 5 5 6 7 8 8 8 7 6
2 4 3 4 3 3 4 3 3 2 3 4 3 3 2 0 1 1 2 2 1 1 2 2 2 2 2 3 5 5 4 2 5 6 4 3 3 4 4 4 4 5 5 6 5 5 6 6 7 8 8 8 9 10
2 4 7 4 3 4 3 2 4 4 3 3 4 3 1 2 2 2 2 3 2 2 2 1 1 3 3 2 4 4 4 3 3 3 3 3 3 2 3 4 5 6 6 3 4 7 7 5 5 8 6 6 9 6
3 4 4 4 3 3 3 3 2 3 3 3 2 2 0 2 2 2 1 2 2 2 2 2 3 3 4 5 5 4 5 4 4 4 4 3 2 2 2 2 3 3 5 3 4 5 5 5 5 5 5 4 5 5
4 2 4 2 3 3 2 2 2 2 2 3 3 4 3 3 2 2 3 3 3 1 2 2 2 3 3 3 3 4 4 6 5 4 2 3 2 2 4 3 3 1 4 5 3 3 4 4 4 5 5 5 6 6
3 3 1 3 3 3 4 3 3 2 1 3 2 2 3 2 3 2 2 1 1 2 3 4 4 3 3 3 3 4 4 5 5 6 5 3 4 4 7 5 3 3 3 7 13 9 8 6 6 6 6 5 3 4
5 4 3 2 3 4 3 4 2 2 1 1 4 2 3 3 2 2 2 1 2 1 1 1 3 3 3 3 3 5 4 3 3 2 2 3 4 5 4 3 4 5 5 6 5 6 11 8 7 5 5 4 3 4
1 2 2 3 3 3 5 3 2 2 2 2 2 4 5 2 2 1 2 1 2 3 2 3 3 3 3 4 3 3 4 5 7 6 5 4 4 3 4 6 4 5 5 5 5 6 6 6 5 5 6 7 7 6
3 5 3 4 4 4 3 3 3 3 2 2 2 1 2 2 1 2 2 1 2 3 2 2 2 2 3 3 2 2 3 3 5 5 6 5 6 8 8 6 5 5 7 7 5 5 7 7 5 6 6 7 6 6
3 2 3 2 3 2 2 3 2 3 3 4 5 6 5 5 4 4 3 0 2 2 2 1 2 1 1 3 3 2 2 2 5 9 8 10 11 9 7 7 7 8 10 8 6 6 6 7 4 4 3 2 3 4
Wind_Direction
357 355 353 352 351 349 348 347 347 347 349 351 353 357 357 359 1 10 279 321 96 174 276 227 280 231 357 101 143 281 26 349 18 60 126 213 186 237 136 229 188 179 157 264 77 277 295 350 340 350 242 280 217 186
353 352 350 350 348 345 345 344 344 345 346 347 348 349 351 354 356 2 322 346 322 158 246 279 259 260 240 191 140 14 182 208 197 88 2 119 285 24 142 256 336 258 177 198 170 220 253 275 232 253 223 222 256 245
350 349 347 345 343 342 342 341 341 341 341 341 341 342 343 344 351 5 294 308 14 31 306 351 277 291 74 201 160 131 285 196 118 169 159 172 249 124 178 241 248 268 134 175 32 292 286 304 299 297 297 239 224 210
346 345 342 340 339 340 339 338 337 336 336 335 334 335 335 336 338 348 340 290 100 97 47 283 335 313 305 160 165 167 161 59 97 70 118 146 182 158 217 226 165 209 25 215 267 291 310 301 299 261 277 261 246 255
339 338 337 337 337 337 337 336 334 333 332 331 330 329 327 326 326 294 245 277 224 118 237 282 306 268 293 211 163 135 132 119 108 79 94 229 229 126 9 54 274 187 196 174 251 249 209 253 273 297 267 267 305 298
335 334 334 335 335 335 334 333 332 330 329 328 326 324 320 319 330 121 30 307 1 106 74 337 296 295 322 24 181 135 100 101 106 143 207 251 253 105 95 213 265 286 294 228 252 253 216 257 267 284 315 38 355 355
330 331 332 333 334 333 334 332 331 328 327 325 322 316 307 301 87 121 174 246 13 14 64 326 331 298 316 34 11 34 34 120 128 158 206 193 254 102 128 208 303 319 305 312 308 284 339 34 325 329 357 349 353 0
323 326 327 329 331 331 332 331 330 327 327 325 320 315 298 166 259 28 332 15 130 83 70 36 280 349 6 11 359 358 7 18 324 214 84 172 29 75 91 271 316 314 328 325 353 350 319 286 23 19 7 11 25 360
316 320 324 326 329 330 331 331 330 329 328 323 317 338 88 38 40 265 324 325 52 122 125 81 152 273 352 343 275 349 51 350 301 229 245 94 355 58 338 316 321 322 320 287 313 311 316 33 0 19 337 337 325 302
310 316 320 323 327 327 329 331 331 330 326 324 22 32 14 309 312 322 23 34 26 0 57 201 206 270 67 13 330 7 26 312 326 267 47 63 85 262 274 274 273 298 309 312 334 349 344 341 349 325 304 286 266 275
304 310 315 318 322 324 327 330 332 332 358 21 14 341 294 306 20 38 351 102 198 293 187 234 185 245 320 85 240 143 275 280 2 274 92 30 23 296 315 320 311 311 314 287 259 271 286 271 295 311 309 303 314 316
298 306 311 313 318 320 323 325 332 9 309 271 296 290 303 344 31 54 278 302 197 231 217 182 232 194 280 114 83 338 267 24 246 317 69 55 264 281 318 317 320 320 321 320 316 313 307 305 288 275 284 305 309 291
291 301 305 309 314 317 317 314 322 315 318 37 258 298 52 285 42 181 246 305 301 258 308 12 337 358 0 44 68 60 359 244 355 51 97 195 262 292 301 289 293 299 295 300 305 294 286 291 307 307 307 306 302 298
286 298 301 306 312 312 312 312 321 336 343 358 3 329 156 298 264 222 231 224 249 167 130 111 25 61 343 15 119 191 251 356 305 75 193 250 259 288 300 284 298 315 317 302 299 294 294 295 304 300 280 296 292 286
289 298 301 303 320 322 314 310 316 172 71 313 41 238 245 281 266 281 267 354 323 76 85 43 35 59 339 347 337 6 287 248 47 108 247 250 274 289 290 297 302 306 312 308 301 291 291 285 293 294 301 293 290 289
299 312 241 346 332 323 316 316 1 110 308 258 247 303 284 356 324 334 339 323 331 58 50 47 53 34 310 295 292 257 344 130 270 270 288 300 290 273 275 298 292 286 290 293 290 281 279 283 284 289 307 304 299 287
302 244 270 358 348 323 312 296 3 260 243 231 269 232 225 244 237 262 268 278 322 67 103 85 32 239 327 299 262 23 113 223 271 281 280 260 270 292 287 290 279 286 297 302 297 291 277 273 299 313 320 314 313 315
228 277 310 345 346 323 314 135 251 262 262 251 239 272 239 232 276 289 271 325 69 110 111 195 141 6 239 236 256 260 264 261 251 251 269 282 286 286 272 269 276 284 286 304 305 304 313 323 312 306 297 290 309 318
265 275 293 310 326 303 310 287 164 258 247 236 252 251 245 268 255 254 269 327 60 134 104 58 118 204 246 231 229 265 264 252 280 283 268 274 273 275 280 283 279 287 280 294 299 303 291 279 272 283 294 308 301 321
271 276 272 271 220 249 270 270 143 241 268 250 290 279 232 233 260 251 255 219 152 89 74 189 211 212 199 235 220 254 271 279 279 298 297 295 287 274 277 271 279 273 284 291 284 278 295 306 294 301 300 330 354 357
292 237 78 110 169 216 280 310 289 242 275 289 259 320 274 292 249 206 229 178 153 206 228 209 223 252 239 255 258 265 276 274 272 267 279 297 307 300 286 284 261 264 259 278 278 291 285 280 299 298 324 348 14 9
264 299 165 181 240 215 241 224 215 271 291 249 314 216 271 275 246 217 149 146 181 219 179 187 257 292 302 296 297 276 276 289 285 287 284 289 297 303 294 293 310 299 285 275 287 312 322 320 338 356 337 41 61 46
302 184 229 212 230 263 261 162 241 225 258 274 289 271 240 261 240 91 89 248 234 238 190 237 273 263 265 280 296 297 300 324 319 313 312 303 301 308 315 324 326 304 311 327 276 326 345 346 5 33 62 58 63 56
232 257 228 218 185 257 273 233 227 259 262 265 240 258 236 238 125 73 155 224 242 139 82 294 307 325 307 296 299 296 307 290 303 308 294 321 328 333 331 333 332 332 343 19 36 40 38 40 49 61 62 64 57 63
211 245 147 273 260 251 243 199 201 227 250 225 255 258 267 263 143 83 148 212 206 284 265 282 331 335 287 285 303 307 311 328 334 324 313 324 315 332 353 354 346 2 346 75 73 56 39 44 62 71 69 67 67 66
215 220 180 212 223 197 242 214 211 215 235 251 234 250 238 122 98 165 211 204 206 219 251 303 332 318 308 247 297 311 306 308 326 304 319 339 344 8 15 20 3 351 355 31 58 61 52 44 53 72 73 66 65 66
222 251 227 233 246 261 260 257 236 274 268 260 301 294 209 170 156 220 250 230 190 219 227 239 210 241 264 294 300 295 289 288 233 252 279 295 291 298 356 26 8 290 312 42 60 73 92 79 64 63 67 55 59 58
240 249 200 226 201 231 260 282 263 257 292 344 4 20 356 17 354 218 202 219 185 203 300 310 280 264 278 288 303 309 338 347 339 340 314 316 342 341 13 331 253 167 35 23 32 126 140 118 93 87 79 73 65 52
243 246 188 255 234 192 212 222 247 257 197 113 72 346 302 251 244 186 224 196 119 68 33 4 353 360 35 70 40 24 22 16 31 33 38 350 341 333 346 343 30 81 37 69 52 44 60 95 98 90 85 82 56 45
242 180 190 242 196 207 245 190 230 292 332 174 130 168 289 277 328 48 56 40 79 69 359 273 322 16 19 43 41 22 0 10 38 13 316 317 292 299 307 347 80 87 86 82 73 52 43 49 43 44 61 57 69 74
221 130 174 200 238 241 235 262 269 252 217 214 200 163 226 233 30 91 221 213 83 58 67 39 22 17 50 45 57 14 358 356 356 354 345 288 292 317 83 71 52 56 59 68 73 78 76 60 64 68 54 41 27 27
201 202 184 201 246 247 206 195 222 217 235 171 259 210 338 43 189 294 299 112 93 79 81 90 71 355 31 106 141 88 19 337 349 353 352 357 36 58 69 57 49 56 64 67 58 59 67 74 74 74 65 54 41 30
184 177 189 246 254 247 246 137 208 262 221 209 219 193 183 171 193 236 310 351 142 157 149 172 216 276 94 93 42 70 54 39 21 6 357 65 54 44 52 58 57 58 63 67 59 67 73 86 83 89 99 87 41 5